"2010-05-21 00:00:00",130060,7.198,129.9,1.568,0.45,15.41,106.1128,14.92,15.85,60.87,0,110.6,13.27,15.73,91.9
"2010-05-21 00:00:30",130061,6.858,126.7,3.704,0.249,15.4,106.1128,14.92,15.85,60.87,0,110.6,13.27,15.73,88.7
"2010-05-21 00:01:00",130062,6.393,132.9,5.07,0.251,15.38,106.1145,14.93,15.84,60.42,0,110.6,13.27,15.73,94.9
"2010-05-21 00:01:30",130063,6.385,133.7,4.153,0.286,15.39,106.1221,14.95,15.85,59.94,0,110.6,13.27,15.75,95.7
"2010-05-21 00:02:00",130064,6.849,137.4,3.099,0.218,15.44,106.1376,14.99,15.85,59.85,0,110.6,13.27,15.79,99.4
"2010-05-21 00:02:30",130065,7.155,141,2.918,0.557,15.42,106.1454,15.01,15.87,59.82,0,110.6,13.27,15.81,103.0
"2010-05-21 00:03:00",130066,6.888,138.7,2.311,0.375,15.42,106.1466,15.01,15.88,59.84,0,110.6,13.27,15.81,100.7
"2010-05-21 00:03:30",130067,6.815,138.9,1.392,0.151,15.45,106.1466,15.01,15.88,60,0,110.6,13.27,15.81,100.9
"2010-05-21 00:04:00",130068,6.66,132.5,2.037,0.218,15.46,106.1466,15.01,15.91,60.44,0,110.6,13.27,15.81,94.5
"2010-05-21 00:04:30",130069,6.721,132.4,3.143,0.237,15.49,106.1466,15.01,15.92,60.56,0,110.6,13.26,15.81,94.4
"2010-05-21 00:05:00",130070,6.073,140.8,2.405,0.348,15.5,106.1466,15.01,15.92,60.65,0,110.6,13.27,15.81,102.8
"2010-05-21 00:05:30",130071,6.086,144.2,2.721,0.308,15.5,106.1497,15.02,15.92,58.97,0,110.6,13.27,15.82,106.2
"2010-05-21 00:06:00",130072,6.142,146.1,3.946,0.521,15.49,106.1629,15.05,15.93,58.86,0,110.6,13.26,15.85,108.1
"2010-05-21 00:06:30",130073,5.281,150.7,2.605,0.318,15.4,106.168,15.06,15.95,59.85,0,110.6,13.26,15.87,112.7
"2010-05-21 00:07:00",130074,5.498,137.2,5.201,0.417,15.29,106.1584,15.04,15.94,60.72,0,110.6,13.26,15.84,99.2
"2010-05-21 00:07:30",130075,4.475,123.4,2.643,0.326,15.32,106.1485,15.01,15.95,61.1,0,110.6,13.26,15.82,85.4
"2010-05-21 00:08:00",130076,4.382,126.8,3.754,0.468,15.27,106.1466,15.01,15.94,61.42,0,110.6,13.26,15.81,88.8
"2010-05-21 00:08:30",130077,4.814,133.6,1.849,0.206,15.18,106.1466,15.01,15.93,61.28,0,110.6,13.26,15.81,95.6
"2010-05-21 00:09:00",130078,4.384,138.7,2.12,0.385,15.19,106.1393,14.99,15.93,60.81,0,110.6,13.26,15.79,100.7
"2010-05-21 00:09:30",130079,4.934,131.7,4.922,0.19,15.21,106.1317,14.97,15.9,60.87,0,110.6,13.26,15.77,93.7
"2010-05-21 00:10:00",130080,5.109,128.8,4.24,0.286,15.21,106.1142,14.93,15.89,61.41,0,110.6,13.26,15.73,90.8
"2010-05-21 00:10:30",130081,5.838,124.7,3.349,0.247,15.31,106.1128,14.92,15.87,61.4,0,110.6,13.26,15.73,86.7
"2010-05-21 00:11:00",130082,5.622,122.3,6.21,0.476,15.33,106.1128,14.92,15.88,61.77,0,110.6,13.26,15.73,84.3
"2010-05-21 00:11:30",130083,5.475,124.5,4.01,0.199,15.33,106.1128,14.92,15.88,61.72,0,110.6,13.26,15.73,86.5
"2010-05-21 00:12:00",130084,5.828,123.2,4.394,0.528,15.27,106.1128,14.92,15.87,61.66,0,110.6,13.26,15.73,85.2
"2010-05-21 00:12:30",130085,5.803,126.1,2.651,0.254,15.4,106.1128,14.92,15.86,61.35,0,110.6,13.27,15.73,88.1
"2010-05-21 00:13:00",130086,5.458,133.9,2.156,0.375,15.4,106.1134,14.92,15.85,60.32,0,110.6,13.27,15.73,95.9
"2010-05-21 00:13:30",130087,6.33,125.6,3.257,0.508,15.42,106.1291,14.96,15.86,61.5,0,110.6,13.27,15.77,87.6
"2010-05-21 00:14:00",130088,6.625,127,4.74,0.36,15.49,106.1426,15,15.88,61.8,0,110.6,13.27,15.80,89.0
"2010-05-21 00:14:30",130089,5.392,121.3,2.598,0.799,15.36,106.1454,15.01,15.89,62.45,0,110.6,13.26,15.81,83.3
"2010-05-21 00:15:00",130090,4.795,129.2,4.117,0.331,15.41,106.1353,14.98,15.88,62.69,0,110.6,13.27,15.78,91.2
"2010-05-21 00:15:30",130091,4.842,135.2,8.48,0.258,15.39,106.1235,14.95,15.87,61.94,0,110.6,13.27,15.75,97.2
"2010-05-21 00:16:00",130092,5.392,139.5,2.173,0.594,15.52,106.1325,14.97,15.86,60.84,0,110.6,13.27,15.78,101.5
"2010-05-21 00:16:30",130093,5.443,144.9,2.458,0.349,15.61,106.146,15.01,15.87,59.72,0,110.6,13.27,15.81,106.9
"2010-05-21 00:17:00",130094,4.648,146.5,4.259,0.304,15.52,106.1488,15.01,15.89,59.2,0,110.6,13.27,15.82,108.5
"2010-05-21 00:17:30",130095,4.422,133.8,4.434,0.206,15.35,106.173,15.08,15.92,60.02,0,110.6,13.27,15.88,95.8
"2010-05-21 00:18:00",130096,4.779,140.5,2.95,0.211,15.41,106.1803,15.09,15.94,60.4,0,110.6,13.27,15.90,102.5
"2010-05-21 00:18:30",130097,5.515,147.1,3.875,0.293,15.46,106.1803,15.09,15.95,60.65,0,110.6,13.27,15.90,109.1
"2010-05-21 00:19:00",130098,5.573,146,5.228,0.757,15.56,106.1806,15.1,15.96,60.98,0,110.6,13.27,15.90,108.0
"2010-05-21 00:19:30",130099,5.663,142.8,5.138,0.661,15.6,106.1992,15.14,15.99,60.69,0,110.6,13.27,15.95,104.8
"2010-05-21 00:20:00",130100,5.02,135.8,1.901,0.209,15.4,106.2138,15.18,16,59.11,0,110.6,13.27,15.99,97.8
"2010-05-21 00:20:30",130101,5.684,137,4.78,0.325,15.51,106.2141,15.18,16.01,60.68,0,110.6,13.27,15.99,99.0
"2010-05-21 00:21:00",130102,6.155,126.6,5.545,0.501,15.33,106.2113,15.17,16.01,60.89,0,110.6,13.27,15.98,88.6
"2010-05-21 00:21:30",130103,7.047,121.4,2.571,0.231,15.31,106.1919,15.12,16.04,60.79,0,110.6,13.27,15.93,83.4
"2010-05-21 00:22:00",130104,7.462,120.6,3.088,0.439,15.35,106.1812,15.1,16.02,60.88,0,110.6,13.27,15.90,82.6
"2010-05-21 00:22:30",130105,7.362,121.9,3.998,0.202,15.33,106.1803,15.09,16.01,60.95,0,110.6,13.27,15.90,83.9
"2010-05-21 00:23:00",130106,7.278,125.1,3.076,0.514,15.32,106.1803,15.09,16,60.32,0,110.6,13.26,15.90,87.1
"2010-05-21 00:23:30",130107,6.801,134,1.968,0.229,15.42,106.1761,15.08,15.98,59.86,0,110.6,13.26,15.89,96.0
"2010-05-21 00:24:00",130108,6.813,131.7,2.141,0.382,15.4,106.1575,15.04,15.97,60.04,0,110.6,13.26,15.84,93.7
"2010-05-21 00:24:30",130109,6.6,129.5,1.086,0.277,15.37,106.1468,15.01,15.96,60.12,0,110.6,13.26,15.81,91.5
"2010-05-21 00:25:00",130110,6.573,134.7,2.099,0.378,15.53,106.1466,15.01,15.96,60.27,0,110.6,13.26,15.81,96.7
"2010-05-21 00:25:30",130111,6.072,135.8,1.649,0.177,15.55,106.1466,15.01,15.95,60.24,0,110.6,13.26,15.81,97.8
"2010-05-21 00:26:00",130112,6.125,136.9,1.913,0.147,15.59,106.1466,15.01,15.91,60.06,0,110.6,13.26,15.81,98.9
"2010-05-21 00:26:30",130113,6.083,135.7,1.849,0.163,15.52,106.1466,15.01,15.92,60.41,0,110.6,13.26,15.81,97.7
"2010-05-21 00:27:00",130114,6.249,137.3,2.145,0.416,15.51,106.1466,15.01,15.93,60.91,0,110.6,13.26,15.81,99.3
"2010-05-21 00:27:30",130115,6.097,134.6,1.765,0.392,15.5,106.1466,15.01,15.93,61.07,0,110.6,13.26,15.81,96.6
"2010-05-21 00:28:00",130116,6.135,137.9,2.274,0.272,15.53,106.146,15.01,15.92,60.78,0,110.6,13.26,15.81,99.9
"2010-05-21 00:28:30",130117,6.171,137.8,3.077,0.257,15.52,106.1466,15.01,15.92,60.91,0,110.6,13.26,15.81,99.8
"2010-05-21 00:29:00",130118,6.338,134.6,2.384,0.287,15.47,106.1466,15.01,15.92,61.03,0,110.6,13.27,15.81,96.6
"2010-05-21 00:29:30",130119,6.123,135.7,2.486,0.351,15.53,106.1452,15,15.93,61.04,0,110.6,13.26,15.81,97.7
"2010-05-21 00:30:00",130120,5.948,135.1,1.96,0.222,15.55,106.1449,15,15.93,60.71,0,110.6,13.27,15.81,97.1
"2010-05-21 00:30:30",130121,5.765,132.7,1.604,0.15,15.52,106.1466,15.01,15.92,60.87,0,110.6,13.27,15.81,94.7
"2010-05-21 00:31:00",130122,6.157,132.3,1.235,0.205,15.52,106.1466,15.01,15.91,60.94,0,110.6,13.27,15.81,94.3
"2010-05-21 00:31:30",130123,6.674,136.9,2.308,0.356,15.58,106.1466,15.01,15.92,60.66,0,110.6,13.27,15.81,98.9
"2010-05-21 00:32:00",130124,6.479,140.2,2.735,0.298,15.64,106.1466,15.01,15.92,60.57,0,110.6,13.27,15.81,102.2
"2010-05-21 00:32:30",130125,5.345,131.3,4.488,0.421,15.52,106.1466,15.01,15.94,60.76,0,110.6,13.27,15.81,93.3
"2010-05-21 00:33:00",130126,5.681,127.6,4.212,0.273,15.59,106.1469,15.01,15.93,61.66,0,110.6,13.27,15.81,89.6
"2010-05-21 00:33:30",130127,5.992,133.4,2.562,0.211,15.58,106.1466,15.01,15.93,60.88,0,110.6,13.27,15.81,95.4
"2010-05-21 00:34:00",130128,5.725,137.3,1.872,0.235,15.55,106.1457,15.01,15.92,60.6,0,110.6,13.27,15.81,99.3
"2010-05-21 00:34:30",130129,5.664,134.2,1.621,0.228,15.57,106.144,15,15.9,60.34,0,110.6,13.27,15.81,96.2
"2010-05-21 00:35:00",130130,5.49,142,4.715,0.255,15.65,106.1454,15.01,15.92,59.97,0,110.6,13.27,15.81,104.0
"2010-05-21 00:35:30",130131,5.86,142.6,0.943,0.209,15.66,106.1469,15.01,15.93,58.88,0,110.6,13.27,15.81,104.6
"2010-05-21 00:36:00",130132,6.087,132.1,4.695,0.354,15.57,106.1466,15.01,15.92,59.53,0,110.6,13.27,15.81,94.1
"2010-05-21 00:36:30",130133,5.795,131.9,4.838,0.35,15.57,106.1466,15.01,15.95,60.16,0,110.6,13.27,15.81,93.9
"2010-05-21 00:37:00",130134,5.343,128.6,3.338,0.631,15.57,106.1466,15.01,15.95,60.16,0,110.6,13.27,15.81,90.6
"2010-05-21 00:37:30",130135,5.701,135,2.789,0.256,15.6,106.1469,15.01,15.97,59.95,0,110.6,13.27,15.81,97.0
"2010-05-21 00:38:00",130136,5.752,132.6,3.139,0.248,15.61,106.1482,15.01,15.94,59.94,0,110.6,13.27,15.82,94.6
"2010-05-21 00:38:30",130137,5.548,124.9,2.226,0.371,15.58,106.1522,15.02,15.97,60.74,0,110.6,13.27,15.83,86.9
"2010-05-21 00:39:00",130138,4.973,114.8,5.688,0.502,15.55,106.148,15.01,15.98,61.21,0,110.6,13.27,15.82,76.8
"2010-05-21 00:39:30",130139,5.636,115.4,3.74,0.251,15.52,106.1466,15.01,15.95,61.95,0,110.6,13.27,15.81,77.4
"2010-05-21 00:40:00",130140,5.324,117.1,5.266,0.33,15.38,106.1457,15.01,15.94,62.29,0,110.6,13.26,15.81,79.1
"2010-05-21 00:40:30",130141,6.02,121.7,2.207,0.286,15.36,106.1325,14.97,15.92,62.23,0,110.6,13.26,15.78,83.7
"2010-05-21 00:41:00",130142,6.496,126.6,4.446,0.26,15.39,106.1145,14.93,15.91,62.55,0,110.6,13.26,15.73,88.6
"2010-05-21 00:41:30",130143,6.291,120.9,3.556,0.557,15.43,106.1137,14.92,15.9,62.44,0,110.6,13.26,15.73,82.9
"2010-05-21 00:42:00",130144,6.277,129.3,3.955,0.233,15.49,106.1125,14.92,15.89,62.98,0,110.6,13.26,15.73,91.3
"2010-05-21 00:42:30",130145,6.413,132.2,3.798,0.268,15.57,106.0945,14.87,15.87,62.17,0,110.6,13.26,15.68,94.2
"2010-05-21 00:43:00",130146,6.58,130.9,2.082,0.256,15.56,106.0864,14.85,15.86,61.78,0,110.6,13.26,15.66,92.9
"2010-05-21 00:43:30",130147,6.83,131.1,2.633,0.477,15.62,106.0817,14.84,15.83,61.87,0,110.6,13.26,15.65,93.1
"2010-05-21 00:44:00",130148,7.424,138,1.5,0.184,15.68,106.0817,14.84,15.83,61.71,0,110.6,13.26,15.65,100.0
"2010-05-21 00:44:30",130149,7.213,137.7,2.303,0.238,15.69,106.0825,14.84,15.82,61.52,0,110.6,13.26,15.65,99.7
"2010-05-21 00:45:00",130150,6.565,138.6,3.051,0.227,15.7,106.0834,14.85,15.83,61.54,0,110.6,13.26,15.65,100.6
"2010-05-21 00:45:30",130151,6.447,135.9,1.717,0.351,15.69,106.0861,14.85,15.82,62.21,0,110.6,13.27,15.66,97.9
"2010-05-21 00:46:00",130152,6.464,136.8,2.899,0.263,15.67,106.0875,14.86,15.81,61.38,0,110.6,13.27,15.66,98.8
"2010-05-21 00:46:30",130153,6.21,134.8,2.333,0.315,15.71,106.0968,14.88,15.83,61.83,0,110.6,13.27,15.68,96.8
"2010-05-21 00:47:00",130154,6.124,137.2,5.211,0.183,15.69,106.0971,14.88,15.82,61.72,0,110.6,13.27,15.69,99.2
"2010-05-21 00:47:30",130155,5.658,133.9,2.609,0.245,15.64,106.0985,14.89,15.83,62.13,0,110.6,13.27,15.69,95.9
"2010-05-21 00:48:00",130156,5.315,134.8,3.315,0.222,15.58,106.1019,14.89,15.84,61.31,0,110.6,13.27,15.70,96.8
"2010-05-21 00:48:30",130157,5.587,136.9,4.347,0.154,15.64,106.0996,14.89,15.81,60.8,0,110.6,13.27,15.69,98.9
"2010-05-21 00:49:00",130158,5.345,137,3.304,0.181,15.58,106.1021,14.89,15.82,60.75,0,110.6,13.27,15.70,99.0
"2010-05-21 00:49:30",130159,5.15,130.7,2.596,0.23,15.48,106.0975,14.88,15.82,62.16,0,110.6,13.27,15.69,92.7
"2010-05-21 00:50:00",130160,5.776,132,2.752,0.344,15.6,106.0996,14.89,15.82,61.69,0,110.6,13.27,15.69,94.0
"2010-05-21 00:50:30",130161,5.664,125.6,4.101,0.321,15.53,106.1011,14.89,15.82,62.22,0,110.6,13.27,15.70,87.6
"2010-05-21 00:51:00",130162,6.101,130.2,1.559,0.403,15.54,106.1008,14.89,15.79,61.83,0,110.6,13.27,15.70,92.2
"2010-05-21 00:51:30",130163,6.256,132.5,3.932,0.223,15.62,106.1029,14.9,15.79,61.47,0,110.6,13.27,15.70,94.5
"2010-05-21 00:52:00",130164,6.075,127.3,3.178,0.246,15.55,106.1032,14.9,15.77,62.2,0,110.6,13.27,15.70,89.3
"2010-05-21 00:52:30",130165,5.879,124.9,2.453,0.145,15.53,106.1012,14.89,15.79,62.62,0,110.6,13.27,15.70,86.9
"2010-05-21 00:53:00",130166,6.336,117.2,5.159,0.314,15.49,106.0888,14.86,15.77,62.39,0,110.6,13.27,15.66,79.2
"2010-05-21 00:53:30",130167,5.923,113.7,4.908,0.384,15.48,106.0729,14.82,15.75,62.21,0,110.6,13.27,15.62,75.7
"2010-05-21 00:54:00",130168,5.474,123.1,2.515,0.208,15.48,106.0712,14.82,15.75,61.76,0,110.6,13.27,15.62,85.1
"2010-05-21 00:54:30",130169,5.258,127.9,2.146,0.133,15.53,106.0727,14.82,15.73,61.85,0,110.6,13.27,15.62,89.9
"2010-05-21 00:55:00",130170,5.344,126.3,2.109,0.224,15.5,106.0733,14.82,15.72,61.73,0,110.6,13.27,15.62,88.3
"2010-05-21 00:55:30",130171,5.706,124.5,4.454,0.191,15.42,106.0727,14.82,15.72,62.03,0,110.6,13.27,15.62,86.5
"2010-05-21 00:56:00",130172,5.384,132.2,1.364,0.163,15.46,106.0719,14.82,15.72,61.82,0,110.6,13.27,15.62,94.2
"2010-05-21 00:56:30",130173,5.299,129.3,4.842,0.277,15.53,106.0699,14.81,15.7,61.25,0,110.6,13.27,15.62,91.3
"2010-05-21 00:57:00",130174,5.082,135.6,1.318,0.316,15.74,106.0703,14.81,15.68,60.66,0,110.6,13.27,15.62,97.6
"2010-05-21 00:57:30",130175,4.878,134.1,1.899,0.12,15.67,106.0793,14.84,15.69,60.58,0,110.6,13.27,15.64,96.1
"2010-05-21 00:58:00",130176,4.769,130.6,2.956,0.17,15.54,106.0793,14.84,15.71,60.71,0,110.6,13.27,15.64,92.6
"2010-05-21 00:58:30",130177,5.277,128.8,1.432,0.207,15.58,106.079,14.84,15.71,60.86,0,110.6,13.27,15.64,90.8
"2010-05-21 00:59:00",130178,5.512,128.6,1.885,0.159,15.6,106.0793,14.84,15.73,61.03,0,110.6,13.27,15.64,90.6
"2010-05-21 00:59:30",130179,6.13,130.9,1.496,0.133,15.55,106.0805,14.84,15.73,60.98,0,110.6,13.27,15.64,92.9
"2010-05-21 01:00:00",130180,6.206,133,1.79,0.138,15.66,106.0805,14.84,15.72,61.09,0,110.6,13.27,15.64,95.0
"2010-05-21 01:00:30",130181,6.136,131.9,2.107,0.165,15.57,106.0805,14.84,15.72,61.4,0,110.6,13.27,15.64,93.9
"2010-05-21 01:01:00",130182,6.31,130.8,2.128,0.165,15.58,106.0805,14.84,15.73,61.54,0,110.6,13.27,15.64,92.8
"2010-05-21 01:01:30",130183,6.675,129.5,1.614,0.224,15.59,106.0808,14.84,15.73,61.87,0,110.6,13.27,15.64,91.5
"2010-05-21 01:02:00",130184,6.525,129.4,3.407,0.19,15.62,106.0808,14.84,15.72,61.9,0,110.6,13.27,15.64,91.4
"2010-05-21 01:02:30",130185,6.165,123.1,6.162,0.463,15.58,106.0783,14.83,15.7,62.46,0,110.6,13.27,15.64,85.1
"2010-05-21 01:03:00",130186,5.634,123.5,2.499,0.33,15.48,106.0585,14.78,15.71,63.29,0,110.6,13.27,15.59,85.5
"2010-05-21 01:03:30",130187,6.358,126.1,4.502,0.218,15.68,106.0473,14.75,15.69,62.22,0,110.6,13.27,15.56,88.1
"2010-05-21 01:04:00",130188,6.326,129.7,3.304,0.194,15.65,106.0473,14.75,15.66,62.36,0,110.6,13.27,15.56,91.7
"2010-05-21 01:04:30",130189,6.242,129.6,3.676,0.375,15.66,106.0473,14.75,15.65,62.33,0,110.6,13.27,15.56,91.6
"2010-05-21 01:05:00",130190,6.332,130.6,2.895,0.37,15.75,106.047,14.75,15.65,62.03,0,110.6,13.27,15.56,92.6
"2010-05-21 01:05:30",130191,6.341,129.5,2.223,0.241,15.71,106.0473,14.75,15.64,61.87,0,110.6,13.27,15.56,91.5
"2010-05-21 01:06:00",130192,6.414,131.5,2.632,0.223,15.77,106.0473,14.75,15.62,61.93,0,110.6,13.27,15.56,93.5
"2010-05-21 01:06:30",130193,6.173,133.3,1.997,0.24,15.71,106.0473,14.75,15.63,62.13,0,110.6,13.27,15.56,95.3
"2010-05-21 01:07:00",130194,6.375,134.5,3.26,0.17,15.77,106.0473,14.75,15.63,62.01,0,110.6,13.27,15.56,96.5
"2010-05-21 01:07:30",130195,5.855,133.2,3.04,0.249,15.81,106.0473,14.75,15.63,61.83,0,110.6,13.28,15.56,95.2
"2010-05-21 01:08:00",130196,5.387,136.1,3.981,0.265,15.73,106.0473,14.75,15.64,61.84,0,110.6,13.28,15.56,98.1
"2010-05-21 01:08:30",130197,5.695,130.6,1.816,0.216,15.71,106.0473,14.75,15.64,61.82,0,110.6,13.28,15.56,92.6
"2010-05-21 01:09:00",130198,5.979,126.6,4.917,0.188,15.56,106.0473,14.75,15.66,62.07,0,110.6,13.28,15.56,88.6
"2010-05-21 01:09:30",130199,6.844,125.2,2.33,0.238,15.47,106.0473,14.75,15.64,62.31,0,110.6,13.27,15.56,87.2
"2010-05-21 01:10:00",130200,6.917,125.2,0.694,0.087,15.59,106.0434,14.74,15.64,62.27,0,110.6,13.28,15.55,87.2
"2010-05-21 01:10:30",130201,6.97,125.5,0.629,0.107,15.61,106.0234,14.69,15.62,62.31,0,110.6,13.28,15.50,87.5
"2010-05-21 01:11:00",130202,6.973,125.9,0.965,0.181,15.55,106.0135,14.67,15.62,62.64,0,110.6,13.28,15.47,87.9
"2010-05-21 01:11:30",130203,7.142,125.6,1.862,0.223,15.6,106.0135,14.67,15.6,62.73,0,110.6,13.28,15.47,87.6
"2010-05-21 01:12:00",130204,7.504,127,2.019,0.199,15.64,106.0098,14.66,15.58,62.57,0,110.6,13.28,15.46,89.0
"2010-05-21 01:12:30",130205,7.496,129.2,3.059,0.147,15.71,105.9966,14.62,15.56,62.8,0,110.6,13.28,15.43,91.2
"2010-05-21 01:13:00",130206,7.385,130.7,2.245,0.276,15.72,105.9811,14.58,15.55,62.57,0,110.6,13.28,15.39,92.7
"2010-05-21 01:13:30",130207,7.128,126.8,1.349,0.168,15.69,105.9797,14.58,15.53,62.77,0,110.6,13.28,15.38,88.8
"2010-05-21 01:14:00",130208,7.409,129,1.467,0.216,15.73,105.9797,14.58,15.52,62.71,0,110.6,13.27,15.38,91.0
"2010-05-21 01:14:30",130209,7.312,129.6,2.65,0.135,15.75,105.9797,14.58,15.51,62.81,0,110.6,13.27,15.38,91.6
"2010-05-21 01:15:00",130210,7.119,131.7,3.416,0.25,15.81,105.9794,14.58,15.51,62.68,0,110.6,13.27,15.38,93.7
"2010-05-21 01:15:30",130211,6.851,135.8,2.454,0.194,15.89,105.978,14.58,15.5,62.58,0,110.6,13.27,15.38,97.8
"2010-05-21 01:16:00",130212,6.599,135.2,2.127,0.104,15.92,105.9794,14.58,15.49,62.53,0,110.6,13.27,15.38,97.2
"2010-05-21 01:16:30",130213,6.768,134.6,1.302,0.155,15.86,105.9797,14.58,15.5,62.44,0,110.6,13.27,15.38,96.6
"2010-05-21 01:17:00",130214,7.091,134.2,1.391,0.166,15.85,105.9797,14.58,15.49,62.26,0,110.6,13.27,15.38,96.2
"2010-05-21 01:17:30",130215,6.953,132.9,1.642,0.093,15.86,105.9797,14.58,15.49,62.17,0,110.6,13.27,15.38,94.9
"2010-05-21 01:18:00",130216,6.919,134.5,2.247,0.289,15.9,105.9797,14.58,15.51,62.12,0,110.6,13.27,15.38,96.5
"2010-05-21 01:18:30",130217,7.065,137,2.093,0.217,15.9,105.9797,14.58,15.5,62.14,0,110.5,13.27,15.38,99.0
"2010-05-21 01:19:00",130218,6.675,132.9,2.742,0.352,15.86,105.9797,14.58,15.5,62.57,0,110.5,13.28,15.38,94.9
"2010-05-21 01:19:30",130219,6.87,131.3,3.988,0.246,16.03,105.9797,14.58,15.52,62.51,0,110.5,13.28,15.38,93.3
"2010-05-21 01:20:00",130220,7.062,135.6,2.597,0.135,16.26,105.9797,14.58,15.51,62.21,0,110.5,13.28,15.38,97.6
"2010-05-21 01:20:30",130221,7.075,130.7,0.875,0.186,16.25,105.9797,14.58,15.51,62.11,0,110.5,13.28,15.38,92.7
"2010-05-21 01:21:00",130222,7.486,132.2,2.081,0.137,16.27,105.98,14.58,15.5,62.22,0,110.5,13.28,15.38,94.2
"2010-05-21 01:21:30",130223,7.343,129,1.846,0.19,16.26,105.9792,14.58,15.51,62.21,0,110.5,13.28,15.38,91.0
"2010-05-21 01:22:00",130224,7.129,123.5,3.279,0.159,16.13,105.9703,14.56,15.51,62.62,0,110.5,13.28,15.36,85.5
"2010-05-21 01:22:30",130225,7.318,125.7,1.137,0.115,16.16,105.9523,14.51,15.49,62.8,0,110.5,13.28,15.31,87.7
"2010-05-21 01:23:00",130226,7.618,124.3,2.554,0.132,16.19,105.9564,14.52,15.48,62.97,0,110.5,13.28,15.32,86.3
"2010-05-21 01:23:30",130227,7.498,119.2,2.901,0.309,16.1,105.96,14.53,15.48,63.24,0,110.5,13.28,15.33,81.2
"2010-05-21 01:24:00",130228,7.129,116.5,2.372,0.236,16.16,105.9578,14.52,15.45,63.17,0,110.5,13.28,15.33,78.5
"2010-05-21 01:24:30",130229,8.34,124.7,6.766,1.33,18.41,105.9354,14.47,15.56,63.45,0,110.5,13.25,15.27,86.7
"2010-05-21 01:25:00",130230,7.478,123.2,5.246,0.844,16.85,105.939,14.48,15.55,63.61,0,110.5,13.25,15.28,85.2
"2010-05-21 01:25:30",130231,7.368,122.5,1.622,0.129,15.67,105.9397,14.48,15.4,63.65,0,110.5,13.29,15.28,84.5
"2010-05-21 01:26:00",130232,7.278,124.6,1.653,0.16,15.57,105.9267,14.45,15.39,63.68,0,110.5,13.29,15.25,86.6
"2010-05-21 01:26:30",130233,7.391,126,0.597,0.097,15.65,105.9127,14.41,15.37,63.58,0,110.5,13.29,15.21,88.0
"2010-05-21 01:27:00",130234,7.149,125.4,1.569,0.101,15.62,105.9139,14.41,15.35,63.5,0,110.5,13.29,15.21,87.4
"2010-05-21 01:27:30",130235,7.379,126.4,1.241,0.141,15.76,105.9142,14.41,15.34,63.43,0,110.5,13.29,15.22,88.4
"2010-05-21 01:28:00",130236,7.422,127.1,0.963,0.129,15.78,105.9142,14.41,15.33,63.37,0,110.5,13.29,15.22,89.1
"2010-05-21 01:28:30",130237,7.325,128,1.979,0.167,15.86,105.9136,14.41,15.33,63.5,0,110.5,13.29,15.21,90.0
"2010-05-21 01:29:00",130238,7.227,129.2,0.96,0.135,15.97,105.9128,14.41,15.3,63.37,0,110.5,13.29,15.21,91.2
"2010-05-21 01:29:30",130239,7.231,131,0.931,0.131,15.95,105.9111,14.41,15.29,63.35,0,110.5,13.29,15.21,93.0
"2010-05-21 01:30:00",130240,7.411,131.2,1.311,0.091,15.98,105.9119,14.41,15.3,63.47,0,110.5,13.3,15.21,93.2
"2010-05-21 01:30:30",130241,7.389,131.6,1.102,0.156,16.01,105.9139,14.41,15.29,63.42,0,110.5,13.29,15.21,93.6
"2010-05-21 01:31:00",130242,7.714,129.8,1.014,0.122,15.95,105.913,14.41,15.31,63.12,0,110.5,13.29,15.21,91.8
"2010-05-21 01:31:30",130243,7.541,129.7,1.016,0.221,16.02,105.9128,14.41,15.31,63.2,0,110.5,13.29,15.21,91.7
"2010-05-21 01:32:00",130244,7.458,128,2.659,0.174,16.02,105.9102,14.4,15.31,63.33,0,110.5,13.29,15.21,90.0
"2010-05-21 01:32:30",130245,7.031,132.6,1.18,0.19,16.08,105.8989,14.37,15.3,63.33,0,110.5,13.29,15.18,94.6
"2010-05-21 01:33:00",130246,7.067,127.9,1.881,0.196,16.05,105.895,14.36,15.3,63.28,0,110.5,13.29,15.17,89.9
"2010-05-21 01:33:30",130247,7.341,129.1,1.195,0.112,16.15,105.8925,14.36,15.3,63.1,0,110.5,13.29,15.16,91.1
"2010-05-21 01:34:00",130248,7.322,129.2,1.595,0.219,16.19,105.886,14.34,15.29,63.1,0,110.5,13.29,15.14,91.2
"2010-05-21 01:34:30",130249,7.52,129.4,1.668,0.175,16.21,105.8851,14.34,15.31,62.93,0,110.5,13.29,15.14,91.4
"2010-05-21 01:35:00",130250,7.21,130.6,1.145,0.148,16.23,105.8857,14.34,15.29,62.85,0,110.5,13.29,15.14,92.6
"2010-05-21 01:35:30",130251,7.057,129,2.079,0.258,16.19,105.8863,14.34,15.29,62.83,0,110.5,13.29,15.14,91.0
"2010-05-21 01:36:00",130252,7.15,128.8,1.903,0.163,16.16,105.8885,14.35,15.3,62.72,0,110.5,13.3,15.15,90.8
"2010-05-21 01:36:30",130253,6.529,130.2,1.824,0.254,16.2,105.8903,14.35,15.3,62.62,0,110.5,13.3,15.15,92.2
"2010-05-21 01:37:00",130254,7.064,130.8,2.918,0.275,16.27,105.8957,14.37,15.32,62.52,0,110.5,13.3,15.17,92.8
"2010-05-21 01:37:30",130255,7.23,135.8,1.853,0.25,16.31,105.9013,14.38,15.32,62.54,0,110.5,13.3,15.18,97.8
"2010-05-21 01:38:00",130256,7.063,131.7,2.567,0.212,16.29,105.9062,14.39,15.33,62.62,0,110.5,13.3,15.19,93.7
"2010-05-21 01:38:30",130257,7.308,131.8,1.645,0.272,16.27,105.9129,14.41,15.32,62.68,0,110.5,13.3,15.21,93.8
"2010-05-21 01:39:00",130258,7.217,133.3,2.698,0.219,16.3,105.9134,14.41,15.34,62.6,0,110.5,13.3,15.21,95.3
"2010-05-21 01:39:30",130259,6.96,131,2.61,0.32,16.24,105.9188,14.42,15.33,62.7,0,110.5,13.3,15.23,93.0
"2010-05-21 01:40:00",130260,7.856,138.4,5.291,1.403,17.53,105.9178,14.42,15.39,62.84,0,110.5,13.27,15.22,100.4
"2010-05-21 01:40:30",130261,7.772,134.9,7.66,1.302,17.86,105.9152,14.42,15.42,63.25,0,110.5,13.27,15.22,96.9
"2010-05-21 01:41:00",130262,6.868,131.9,1.717,0.232,15.79,105.9147,14.41,15.31,62.91,0,110.5,13.3,15.22,93.9
"2010-05-21 01:41:30",130263,7.892,138.2,7.922,1.287,17.98,105.9159,14.42,15.45,62.87,0,110.5,13.27,15.22,100.2
"2010-05-21 01:42:00",130264,7.386,136.5,5.487,1.324,17.59,105.9162,14.42,15.49,63.43,0,110.5,13.27,15.22,98.5
"2010-05-21 01:42:30",130265,8.23,138.6,7.336,1.065,18.67,105.9046,14.39,15.48,63.8,0,110.5,13.27,15.19,100.6
"2010-05-21 01:43:00",130266,7.763,136,6.852,1.304,17.43,105.8832,14.33,15.41,63.82,0,110.5,13.26,15.14,98.0
"2010-05-21 01:43:30",130267,6.229,132.5,2.575,0.258,14.51,105.8823,14.33,15.26,63.45,0,110.5,13.3,15.13,94.5
"2010-05-21 01:44:00",130268,6.637,132.9,3.539,0.258,14.38,105.8823,14.33,15.24,63.25,0,110.5,13.3,15.13,94.9
"2010-05-21 01:44:30",130269,6.024,130.7,2.644,0.187,14.51,105.8823,14.33,15.22,63.68,0,110.5,13.3,15.13,92.7
"2010-05-21 01:45:00",130270,6.179,132.3,1.767,0.168,14.94,105.8773,14.32,15.22,63.43,0,110.5,13.3,15.12,94.3
"2010-05-21 01:45:30",130271,6.339,133.3,2.172,0.146,15.29,105.8728,14.31,15.23,63.14,0,110.4,13.31,15.11,95.3
"2010-05-21 01:46:00",130272,6.264,132.1,1.451,0.192,15.5,105.8705,14.3,15.22,63.56,0,110.4,13.31,15.10,94.1
"2010-05-21 01:46:30",130273,7.647,135.1,5.877,1.123,17.8,105.8609,14.28,15.32,63.94,0,110.4,13.27,15.08,97.1
"2010-05-21 01:47:00",130274,6.081,133,2.798,0.557,15.69,105.8488,14.25,15.28,63.76,0,110.4,13.28,15.05,95.0
"2010-05-21 01:47:30",130275,6.229,133.5,1.311,0.324,15.51,105.8485,14.24,15.2,63.48,0,110.5,13.3,15.05,95.5
"2010-05-21 01:48:00",130276,6.099,134.7,2.918,0.158,15.52,105.8485,14.24,15.18,63.31,0,110.5,13.3,15.05,96.7
"2010-05-21 01:48:30",130277,6.234,133.9,3.19,0.31,15.68,105.8485,14.24,15.18,63.15,0,110.4,13.3,15.05,95.9